Corpus Christi Jet Center

SKYE FBO - AIRPORT SERVICES
McCampbell-Porter Airport KTFP
Call Us 24/7: (361) 758-2000
KTFP - McCampbell-Porter Airport
Updated: Mon, 24-Sep-2018 11:35am PDT
Mostly Cloudy
Mostly Cloudy
 Wind from S
Wind: S 8 mph , 13 km/h
Temperature: 88°F , 31°C
Heat Index: 96°F , 36°C
Dew Point: 73°F , 23°C
Humidity: 62%
Barometer: 29.91 inHg , 1012.9 hPa
Clouds: Mostly Cloudy
Visibility: 10 miles , 16 km
Cloud details: Mostly Cloudy 3300 ft
Mostly Cloudy 4300 ft
Mostly Cloudy 5500 ft
2018/09/24 18:35 KTFP 241835Z AUTO 18007KT 10SM BKN033 BKN043 BKN055 31/23 A2991 RMK AO2 T03140232 PNO

Location

Skye FBO - Airport Services
McCampbell-Porter Airport KTFP
3141 FM 3512
Aransas Pass, TX 78336-9728
(361) 758-2000
2 miles N of Ingleside, TX
Only 15 min from downtown Corpus Christi 2 miles N of Ingleside, Texas and only 15 minutes from downtown Corpus Christi, Texas

(click to enlarge)

Skyview Aviation BBB Business Review

Flight Training & Testing

Skyview Aviation
www.skyviewtexas.com


Aircraft Services

image Experienced Line Service
Full Service Fueling - 100LL, Jet A (w/Prist)
Oil - Piston / Turbine Engine
Hangar Space (call for availability)
Cleaning
Maintenance
Tie Downs
APU - Fox Cart
Towing

Crew & Passenger Services

Flight Planning
Weather
Crew Cars
Enterprise Rental Cars
Catering
Newspapers
Concierge
WiFi
Baggage & Cargo Handling
Ice/Coffee
image

Management Services

image Individualized turnkey solutions for your general aviation needs